Location: NJAA Observatory
(40.6819°N, 74.8979°W)
Time: 03:47:46
(UTC-04:00)

Vanguard 1 - All Passes

Search period start: 27 July 2016 00:00
Search period end: 06 August 2016 00:00
Orbit: 649 x 3835 km, 34.2° (Epoch: 26 July)

Date Brightness Start Highest point End Pass type
(mag) Time Alt. Az. Time Alt. Az. Time Alt. Az.
27 Jul - 03:18:36 10° SW 03:22:41 23° SSE 03:26:13 10° ESE visible
27 Jul - 05:38:00 10° WSW 05:42:07 39° S 05:46:55 10° ESE daylight
27 Jul - 07:57:33 10° WSW 08:01:52 29° SSW 08:08:02 10° SE daylight
27 Jul - 10:19:36 10° SW 10:22:36 12° SSW 10:26:11 10° S daylight
28 Jul - 01:21:29 10° S 01:23:41 12° SSE 01:25:39 10° SE night (unlit)
28 Jul - 03:39:12 10° SW 03:43:34 29° SSE 03:47:26 10° ESE visible
28 Jul - 05:58:57 10° WSW 06:03:02 38° S 06:07:56 10° ESE daylight
28 Jul - 08:18:49 10° WSW 08:22:53 23° SSW 08:28:29 10° SSE daylight
29 Jul - 01:40:35 10° SSW 01:44:43 17° SSE 01:48:00 10° ESE visible
29 Jul - 03:59:59 10° WSW 04:04:29 35° S 04:08:31 10° ESE visible
29 Jul - 06:19:58 10° WSW 06:23:57 34° S 06:28:51 10° SE daylight
29 Jul - 08:40:26 10° WSW 08:43:56 17° SSW 08:48:26 10° SSE daylight
30 Jul - 02:00:40 10° SW 02:05:43 23° SSE 02:09:32 10° ESE visible
30 Jul - 04:20:54 10° WSW 04:25:23 38° S 04:29:32 10° ESE visible
30 Jul - 06:41:03 10° WSW 06:44:53 28° SSW 06:49:37 10° SE daylight
30 Jul - 09:03:00 10° SW 09:05:00 12° SSW 09:07:16 10° S daylight
31 Jul - 00:02:55 10° S 00:06:15 13° SSE 00:09:03 10° SE night (unlit)
31 Jul - 02:21:11 10° SW 02:26:41 29° SSE 02:30:46 10° ESE visible
31 Jul - 04:41:54 10° WSW 04:46:18 38° S 04:50:30 10° ESE visible
31 Jul - 07:02:16 10° WSW 07:05:49 22° SSW 07:10:09 10° SE daylight
01 Aug - 00:21:50 10° SSW 00:27:23 18° SSE 00:31:30 10° ESE night (unlit)
01 Aug - 02:41:58 10° SW 02:47:39 35° S 02:51:50 10° ESE visible
01 Aug - 05:02:57 10° WSW 05:07:13 36° S 05:11:23 10° ESE visible
01 Aug - 07:23:48 10° WSW 07:26:46 17° SSW 07:30:16 10° SSE daylight
02 Aug - 00:41:45 10° SSW 00:48:29 24° SSE 00:53:07 10° ESE night (unlit)
02 Aug - 03:02:56 10° WSW 03:08:37 39° S 03:12:50 10° ESE visible
02 Aug - 05:24:04 10° WSW 05:28:06 31° SSW 05:32:10 10° SE visible
02 Aug - 07:46:13 10° SW 07:47:43 11° SSW 07:49:21 10° S daylight
02 Aug - 22:43:35 10° S 22:48:25 14° SSE 22:52:20 10° SE visible
03 Aug - 01:02:10 10° SW 01:09:33 30° SSE 01:14:24 10° ESE night (unlit)
03 Aug - 03:24:00 10° WSW 03:29:33 41° S 03:33:46 10° ESE visible
03 Aug - 05:45:17 10° WSW 05:48:58 25° SSW 05:52:46 10° SE daylight
03 Aug - 23:02:12 10° SSW 23:09:39 19° SSE 23:14:56 10° ESE visible
04 Aug - 01:22:56 10° SW 01:30:36 36° S 01:35:31 10° ESE night (unlit)
04 Aug - 03:45:08 10° WSW 03:50:28 41° S 03:54:39 10° ESE visible
04 Aug - 06:06:43 10° WSW 06:09:49 18° SSW 06:13:04 10° SSE daylight
04 Aug - 23:21:54 10° SSW 23:30:51 25° SSE 23:36:42 10° ESE visible
05 Aug - 01:43:55 10° WSW 01:51:37 42° S 01:56:31 10° ESE visible
05 Aug - 04:06:19 10° WSW 04:11:22 37° SSW 04:15:26 10° ESE visible
05 Aug - 06:28:40 10° SW 06:30:39 13° SSW 06:32:44 10° S daylight
05 Aug - 21:23:51 10° S 21:30:06 14° SSE 21:35:04 10° SE visible
05 Aug - 23:42:10 10° SW 23:52:01 32° SSE 23:58:04 10° ESE visible
